Погода в Архангельском

Россия / Кировская область     58°32′40″N   46°54′03″E
темп.,
°C
ветер,
м/с
пор.,
м/с
влажн.,
%
обл.,
%
осадки,
мм/ч
давл.,
гПа
погр.,
м
11 апреля, вс
вс1100:00−4ююз239939 0.0 102751
03:00−5ююз239947 0.0 102854
06:00−2ююз2498100 0.0 1028142
09:00+2ююз359245 0.0 1028290
12:00+7юз47730 0.0 1028700
15:00+9зюз37755 0.0 10291039
18:00+5зюз1195100 0.1 103213
21:00+3з1198100 0.1 103413
12 апреля, пн
пн1200:00+2сз11976 0.0 103517
03:00−2с119931 0.0 103810
06:00−1всв12925 0.0 103953
09:00+6вюв12695 0.0 1039362
12:00+9юв22635 0.0 1039790
15:00+10юв236824 0.0 1038923
18:00+7вюв248969 0.0 1037100
21:00+3юв2697100 0.0 103899
13 апреля, вт
вт1300:00+2ююв31098100 0.0 1037243
03:00+3юв21099100 0.0 1035251
06:00+3ююв3995100 0.0 1034250
09:00+7ю3787100 0.0 1032305
12:00+13ю487194 0.0 1030668
15:00+16ююз4868100 0.0 1029855
18:00+13ю3983100 0.0 1028262
21:00+10ююз31291100 0.0 1028300
14 апреля, ср
ср1400:00+8ююз31093100 0.0 1027199
03:00+6ююз2792100 0.0 1027137
06:00+6ююз288899 0.0 1027150
09:00+12ююз376484 0.0 1026345
12:00+16ююз484993 0.0 1024868
15:00+17юз484613 0.0 10231642
18:00+14ююз4958100 0.0 1022281
21:00+11ююз3117277 0.0 1022238
15 апреля, чт
чт1500:00+9ююз397688 0.0 1021170
03:00+8ююз3981100 0.0 1021180
06:00+7юз298330 0.0 1020195
09:00+13юз3659100 0.0 1018462
12:00+16юз4647100 0.0 10171176
15:00+17зюз3545100 0.0 10161852
18:00+9с4883100 0.0 1017386
21:00+5ссз4886100 0.0 1018502